Terminal Aerodrome Forecast
Issued by NWS Aberdeen, SD

Home | Current Version | Previous Version | Text Only | Print | Product List | Glossary On
Versions: 1 2 3 4 5 6 7 8 9 10 11 12 13 14 15 16 17 18 19 20 21 22 23 24 25 26 27 28 29 30 31 32 33 34 35 36 37 38 39 40 41 42 43
000
FTUS43 KABR 201120
TAFABR
TAF
KABR 201120Z 2012/2112 16015G22KT P6SM SKC
     FM201600 18020G30KT P6SM SCT250
     FM210100 17015KT P6SM BKN250
     FM211100 25011KT P6SM SCT100=

USA.gov is the U.S. government's official web portal to all federal, state and local government web resources and services.